Showing default

COSMOS 1562, 15001

Orbit data source: Space-Track

COSMOS 1562, 15001 is a payload satellite owned by GUKOS (CIS) in LEO that was launched on Mon, 28 May 1984 UTC via a KOSMOS 11K65M launch vehicle from the Plesetsk Missile And Space Complex (PKMTR). Payload-class satellites include a variety of spacecraft equipped with specific instruments for various scientific and technological missions. These include communications satellites like Starlink; space stations such as the ISS; scientific satellites like the Hubble; Earth observation satellites from companies like Planet Labs, Umbra, and HawkEye 360; GPS; miniature CubeSats for education and research; and military/defense satellites.

Loading next visibility...
Identifier
15001, 1984-052D
Orbit
LEO
Country
Flag of CISCIS
Related business
Manufacturer
NPO PM
Mission
Defense Communications
Bus & Motor
STRELA-1 11F625, Unknown motor
Mass
60 kg wet, 60 kg dry
Launch date (UTC)
1984-05-28 (41 years ago)
Launch vehicle
KOSMOS 11K65M
Launch site
Plesetsk Missile And Space Complex (PKMTR)
Object type
Payload
Rocket body
Debris
Shape & HBR
Sphere, 0.4 m
Radar Cross Section
0.588 m², Medium (>0.1 m² and < 1m²)

Expand to show TLE details & history
Last TLE update: 8 hours ago

TLE from 8 hours ago
0 COSMOS 1562
1 15001U 84052D   25258.62034473 -.00000017  00000-0 -42928-5 0  9997
2 15001  74.0144 321.4321 0014913 177.6314 294.6943 12.49960090884470
Epoch: 2025-09-15T14:53Z
TLE epoch observation values (Epoch: 2025-09-15T14:53:17.784Z)
Latitude
62.99864°
Longitude
-110.73168°
Altitude
1,470.243 km
Speed
7.136 km/s
True Right ascension
07h 09m 39s
True Declination
62° 52' 19"
Sunlit
Object was in daylight at epoch
Visualization orbit readout
Latitude
Unknown
Longitude
Unknown
Altitude
Unknown
Speed
Unknown
Apparent Right ascension
Unknown
Apparent Declination
Unknown
Sunlit
N/A
Visualization observer readout
Local Sidereal Time
15:49:53
Azimuth
Unknown
Elevation
Unknown
Doppler factor
Unknown
Orbital elements
Apogee altitude
1,474.191 km
Perigee altitude
1,450.805 km
Semi-major axis
7,840.635 km
Eccentricity
0.00149
Inclination
74.0144°
RAAN
321.4321°
Arg. of periapsis
177.6314°
True anomaly
294.53892°
Mean anomaly
294.6943°
Eccentric anomaly
294.61662°
Mean motion
3.1262 °/min
Orbital period
115.16 mins
BSTAR
-0.0000042928
Loading maneuver chart data...
Computing Atmospheric mass density...
Loading historical data...
Loading historical data...
Loading historical data...
Loading historical data...
Loading historical data...
Loading historical data...
Loading historical data...

Documentation

Showing up to 5 results
|